PRIVATE WETTERSTATION BILLIGHEIM-ALLFELD                       ZURCK
Wetterdaten: Freitag, 17.03.2017
Datum Zeit Temp. A. Temp. A. min Temp. A. max Feuchte A. Luftdruck Regen Wind Richtung Richtung Sonnenschein ET Solar Taupunkt Windchill Windben Empfang
17.03.2017 00:00 4,6 C 4,6 C 4,6 C 78 % 1017,9 hPa 0,0 l/m 0,0 km/h (0 Bft) N 0 0 min 0,025 mm 0 W/m 1,1 C 4,6 C 0,0 km/h (0 Bft) 100 %
17.03.2017 00:10 4,4 C 4,4 C 4,6 C 79 % 1017,8 hPa 0,0 l/m 0,0 km/h (0 Bft) W-SW 247 0 min 0,000 mm 0 W/m 1,1 C 4,4 C 1,6 km/h (1 Bft) 100 %
17.03.2017 00:20 4,2 C 4,2 C 4,4 C 80 % 1017,8 hPa 0,0 l/m 1,6 km/h (1 Bft) W 270 0 min 0,000 mm 0 W/m 1,1 C 4,2 C 6,4 km/h (2 Bft) 100 %
17.03.2017 00:30 3,8 C 3,8 C 4,2 C 81 % 1017,9 hPa 0,0 l/m 0,0 km/h (0 Bft) W 270 0 min 0,000 mm 0 W/m 0,8 C 3,8 C 4,8 km/h (1 Bft) 100 %
17.03.2017 00:40 3,5 C 3,5 C 3,8 C 82 % 1017,8 hPa 0,0 l/m 0,0 km/h (0 Bft) W 270 0 min 0,000 mm 0 W/m 0,7 C 3,5 C 1,6 km/h (1 Bft) 100 %
17.03.2017 00:50 3,3 C 3,3 C 3,4 C 84 % 1017,7 hPa 0,0 l/m 0,0 km/h (0 Bft) N 0 0 min 0,000 mm 0 W/m 0,9 C 3,3 C 0,0 km/h (0 Bft) 100 %
17.03.2017 01:00 3,4 C 3,3 C 3,4 C 83 % 1017,6 hPa 0,0 l/m 0,0 km/h (0 Bft) N 0 0 min 0,000 mm 0 W/m 0,8 C 3,4 C 0,0 km/h (0 Bft) 100 %
17.03.2017 01:10 3,4 C 3,4 C 3,4 C 83 % 1017,6 hPa 0,0 l/m 0,0 km/h (0 Bft) N 0 0 min 0,000 mm 0 W/m 0,8 C 3,4 C 0,0 km/h (0 Bft) 100 %
17.03.2017 01:20 3,3 C 3,3 C 3,4 C 84 % 1017,5 hPa 0,0 l/m 1,6 km/h (1 Bft) W 270 0 min 0,000 mm 0 W/m 0,9 C 3,3 C 4,8 km/h (1 Bft) 100 %
17.03.2017 01:30 3,2 C 3,2 C 3,3 C 84 % 1017,4 hPa 0,0 l/m 0,0 km/h (0 Bft) W-NW 292 0 min 0,000 mm 0 W/m 0,8 C 3,2 C 4,8 km/h (1 Bft) 100 %
17.03.2017 01:40 3,1 C 3,1 C 3,1 C 85 % 1017,3 hPa 0,0 l/m 0,0 km/h (0 Bft) N 0 0 min 0,000 mm 0 W/m 0,8 C 3,1 C 0,0 km/h (0 Bft) 100 %
17.03.2017 01:50 2,9 C 2,9 C 3,1 C 85 % 1017,3 hPa 0,0 l/m 0,0 km/h (0 Bft) N 0 0 min 0,000 mm 0 W/m 0,6 C 2,9 C 0,0 km/h (0 Bft) 100 %
17.03.2017 02:00 3,0 C 2,9 C 3,0 C 85 % 1017,3 hPa 0,0 l/m 0,0 km/h (0 Bft) N 0 0 min 0,000 mm 0 W/m 0,7 C 3,0 C 0,0 km/h (0 Bft) 100 %
17.03.2017 02:10 2,9 C 2,9 C 3,0 C 85 % 1017,2 hPa 0,0 l/m 0,0 km/h (0 Bft) N 0 0 min 0,000 mm 0 W/m 0,6 C 2,9 C 0,0 km/h (0 Bft) 99 %
17.03.2017 02:20 2,9 C 2,8 C 2,9 C 86 % 1017,0 hPa 0,0 l/m 0,0 km/h (0 Bft) W-NW 292 0 min 0,000 mm 0 W/m 0,8 C 2,9 C 1,6 km/h (1 Bft) 100 %
17.03.2017 02:30 3,2 C 2,9 C 3,2 C 86 % 1016,8 hPa 0,0 l/m 0,0 km/h (0 Bft) N 0 0 min 0,000 mm 0 W/m 1,1 C 3,2 C 0,0 km/h (0 Bft) 100 %
17.03.2017 02:40 3,6 C 3,2 C 3,6 C 84 % 1016,6 hPa 0,0 l/m 0,0 km/h (0 Bft) N 0 0 min 0,000 mm 0 W/m 1,2 C 3,6 C 0,0 km/h (0 Bft) 100 %
17.03.2017 02:50 3,6 C 3,6 C 3,7 C 84 % 1016,6 hPa 0,0 l/m 0,0 km/h (0 Bft) N 0 0 min 0,000 mm 0 W/m 1,2 C 3,6 C 0,0 km/h (0 Bft) 100 %
17.03.2017 03:00 3,6 C 3,6 C 3,6 C 83 % 1016,5 hPa 0,0 l/m 0,0 km/h (0 Bft) N 0 0 min 0,000 mm 0 W/m 1,0 C 3,6 C 0,0 km/h (0 Bft) 100 %
17.03.2017 03:10 3,6 C 3,5 C 3,6 C 84 % 1016,5 hPa 0,0 l/m 0,0 km/h (0 Bft) N 0 0 min 0,000 mm 0 W/m 1,2 C 3,6 C 0,0 km/h (0 Bft) 100 %
17.03.2017 03:20 3,7 C 3,6 C 3,7 C 84 % 1016,4 hPa 0,0 l/m 0,0 km/h (0 Bft) N 0 0 min 0,000 mm 0 W/m 1,3 C 3,7 C 0,0 km/h (0 Bft) 100 %
17.03.2017 03:30 3,8 C 3,7 C 3,8 C 83 % 1016,4 hPa 0,0 l/m 0,0 km/h (0 Bft) N 0 0 min 0,000 mm 0 W/m 1,2 C 3,8 C 0,0 km/h (0 Bft) 100 %
17.03.2017 03:40 3,9 C 3,8 C 3,9 C 84 % 1016,3 hPa 0,0 l/m 0,0 km/h (0 Bft) N 0 0 min 0,000 mm 0 W/m 1,4 C 3,9 C 0,0 km/h (0 Bft) 89 %
17.03.2017 03:50 4,1 C 3,9 C 4,1 C 83 % 1016,3 hPa 0,0 l/m 0,0 km/h (0 Bft) N 0 0 min 0,000 mm 0 W/m 1,5 C 4,1 C 0,0 km/h (0 Bft) 100 %
17.03.2017 04:00 4,7 C 4,2 C 4,7 C 81 % 1016,2 hPa 0,0 l/m 0,0 km/h (0 Bft) W-NW 292 0 min 0,000 mm 0 W/m 1,7 C 4,7 C 1,6 km/h (1 Bft) 100 %
17.03.2017 04:10 4,8 C 4,7 C 4,8 C 80 % 1016,2 hPa 0,0 l/m 0,0 km/h (0 Bft) N 0 0 min 0,000 mm 0 W/m 1,6 C 4,8 C 0,0 km/h (0 Bft) 100 %
17.03.2017 04:20 4,9 C 4,8 C 4,9 C 80 % 1016,0 hPa 0,0 l/m 0,0 km/h (0 Bft) N 0 0 min 0,000 mm 0 W/m 1,7 C 4,9 C 0,0 km/h (0 Bft) 99 %
17.03.2017 04:30 4,5 C 4,5 C 4,9 C 79 % 1015,9 hPa 0,0 l/m 0,0 km/h (0 Bft) N 0 0 min 0,000 mm 0 W/m 1,2 C 4,5 C 0,0 km/h (0 Bft) 97 %
17.03.2017 04:40 3,8 C 3,8 C 4,5 C 81 % 1015,8 hPa 0,0 l/m 0,0 km/h (0 Bft) N 0 0 min 0,000 mm 0 W/m 0,8 C 3,8 C 0,0 km/h (0 Bft) 98 %
17.03.2017 04:50 3,6 C 3,6 C 3,7 C 83 % 1015,8 hPa 0,0 l/m 0,0 km/h (0 Bft) N 0 0 min 0,000 mm 0 W/m 1,0 C 3,6 C 0,0 km/h (0 Bft) 97 %
17.03.2017 05:00 3,8 C 3,6 C 3,8 C 84 % 1015,8 hPa 0,0 l/m 0,0 km/h (0 Bft) N 0 0 min 0,000 mm 0 W/m 1,4 C 3,8 C 0,0 km/h (0 Bft) 98 %
17.03.2017 05:10 4,1 C 3,8 C 4,1 C 83 % 1015,7 hPa 0,0 l/m 0,0 km/h (0 Bft) N 0 0 min 0,000 mm 0 W/m 1,5 C 4,1 C 0,0 km/h (0 Bft) 97 %
17.03.2017 05:20 4,1 C 4,1 C 4,1 C 82 % 1015,6 hPa 0,0 l/m 0,0 km/h (0 Bft) N 0 0 min 0,000 mm 0 W/m 1,3 C 4,1 C 0,0 km/h (0 Bft) 98 %
17.03.2017 05:30 3,9 C 3,9 C 4,1 C 83 % 1015,6 hPa 0,0 l/m 0,0 km/h (0 Bft) N 0 0 min 0,000 mm 0 W/m 1,3 C 3,9 C 0,0 km/h (0 Bft) 97 %
17.03.2017 05:40 3,5 C 3,5 C 3,9 C 81 % 1015,6 hPa 0,0 l/m 0,0 km/h (0 Bft) N 0 0 min 0,000 mm 0 W/m 0,6 C 3,5 C 0,0 km/h (0 Bft) 98 %
17.03.2017 05:50 3,1 C 3,1 C 3,4 C 85 % 1015,7 hPa 0,0 l/m 0,0 km/h (0 Bft) N 0 0 min 0,000 mm 0 W/m 0,8 C 3,1 C 0,0 km/h (0 Bft) 98 %
17.03.2017 06:00 2,8 C 2,8 C 3,1 C 85 % 1015,7 hPa 0,0 l/m 0,0 km/h (0 Bft) N 0 0 min 0,000 mm 0 W/m 0,5 C 2,8 C 0,0 km/h (0 Bft) 97 %
17.03.2017 06:10 2,8 C 2,8 C 2,8 C 87 % 1015,7 hPa 0,0 l/m 0,0 km/h (0 Bft) N 0 0 min 0,000 mm 0 W/m 0,9 C 2,8 C 0,0 km/h (0 Bft) 98 %
17.03.2017 06:20 3,3 C 2,8 C 3,3 C 88 % 1015,7 hPa 0,0 l/m 0,0 km/h (0 Bft) N 0 0 min 0,000 mm 0 W/m 1,5 C 3,3 C 0,0 km/h (0 Bft) 97 %
17.03.2017 06:30 3,6 C 3,3 C 3,6 C 86 % 1015,6 hPa 0,0 l/m 0,0 km/h (0 Bft) N 0 0 min 0,000 mm 0 W/m 1,5 C 3,6 C 0,0 km/h (0 Bft) 98 %
17.03.2017 06:40 3,7 C 3,6 C 3,7 C 86 % 1015,5 hPa 0,0 l/m 0,0 km/h (0 Bft) W-NW 292 0 min 0,000 mm 7 W/m 1,6 C 3,7 C 4,8 km/h (1 Bft) 98 %
17.03.2017 06:50 4,1 C 3,7 C 4,1 C 84 % 1015,6 hPa 0,0 l/m 0,0 km/h (0 Bft) W-NW 292 0 min 0,000 mm 12 W/m 1,6 C 4,1 C 3,2 km/h (1 Bft) 97 %
17.03.2017 07:00 4,0 C 4,0 C 4,1 C 84 % 1015,6 hPa 0,0 l/m 0,0 km/h (0 Bft) N 0 0 min 0,000 mm 19 W/m 1,5 C 4,0 C 0,0 km/h (0 Bft) 98 %
17.03.2017 07:10 3,9 C 3,9 C 4,0 C 84 % 1015,6 hPa 0,0 l/m 0,0 km/h (0 Bft) N 0 0 min 0,000 mm 25 W/m 1,4 C 3,9 C 0,0 km/h (0 Bft) 97 %
17.03.2017 07:20 3,7 C 3,7 C 3,8 C 85 % 1015,6 hPa 0,0 l/m 0,0 km/h (0 Bft) N 0 0 min 0,000 mm 28 W/m 1,4 C 3,7 C 0,0 km/h (0 Bft) 89 %
17.03.2017 07:30 3,9 C 3,7 C 3,9 C 86 % 1015,6 hPa 0,0 l/m 0,0 km/h (0 Bft) N 0 0 min 0,000 mm 42 W/m 1,8 C 3,9 C 0,0 km/h (0 Bft) 97 %
17.03.2017 07:40 4,9 C 3,9 C 4,9 C 83 % 1015,6 hPa 0,0 l/m 1,6 km/h (1 Bft) W 270 0 min 0,000 mm 49 W/m 2,3 C 4,9 C 6,4 km/h (2 Bft) 98 %
17.03.2017 07:50 5,7 C 4,9 C 5,7 C 81 % 1015,5 hPa 0,0 l/m 3,2 km/h (1 Bft) S 180 0 min 0,000 mm 47 W/m 2,7 C 5,7 C 8,0 km/h (2 Bft) 98 %
17.03.2017 08:00 6,3 C 5,7 C 6,3 C 79 % 1015,5 hPa 0,0 l/m 1,6 km/h (1 Bft) S 180 10 min 0,025 mm 183 W/m 2,9 C 6,3 C 6,4 km/h (2 Bft) 97 %
17.03.2017 08:10 6,9 C 6,3 C 6,9 C 78 % 1015,6 hPa 0,0 l/m 0,0 km/h (0 Bft) S-SO 157 10 min 0,000 mm 214 W/m 3,3 C 6,9 C 6,4 km/h (2 Bft) 98 %
17.03.2017 08:20 7,4 C 6,9 C 7,4 C 77 % 1015,6 hPa 0,0 l/m 0,0 km/h (0 Bft) S-SO 157 10 min 0,000 mm 236 W/m 3,6 C 7,4 C 4,8 km/h (1 Bft) 97 %
17.03.2017 08:50 8,8 C 6,9 C 8,8 C 75 % 1015,6 hPa 0,0 l/m 0,0 km/h (0 Bft) S 169 30 min 0,000 mm 315 W/m 4,6 C 8,8 C 1,6 km/h (1 Bft) 99 %
17.03.2017 09:00 9,2 C 8,8 C 9,2 C 75 % 1015,5 hPa 0,0 l/m 0,8 km/h (0 Bft) S-SO 167 10 min 0,000 mm 327 W/m 5,0 C 9,2 C 8,0 km/h (2 Bft) 99 %
17.03.2017 09:10 9,4 C 9,2 C 9,4 C 77 % 1015,5 hPa 0,0 l/m 2,5 km/h (1 Bft) S-SO 160 10 min 0,102 mm 373 W/m 5,6 C 9,4 C 6,4 km/h (2 Bft) 99 %
17.03.2017 09:20 10,0 C 9,4 C 10,0 C 73 % 1015,5 hPa 0,0 l/m 0,2 km/h (0 Bft) S-SO 161 10 min 0,000 mm 401 W/m 5,4 C 10,0 C 6,4 km/h (2 Bft) 100 %
17.03.2017 09:30 10,2 C 10,0 C 10,2 C 71 % 1015,4 hPa 0,0 l/m 0,6 km/h (0 Bft) S 171 10 min 0,000 mm 364 W/m 5,2 C 10,2 C 8,0 km/h (2 Bft) 99 %
17.03.2017 09:40 10,4 C 10,2 C 10,4 C 71 % 1015,2 hPa 0,0 l/m 1,7 km/h (1 Bft) S-SO 156 10 min 0,000 mm 454 W/m 5,4 C 10,4 C 8,0 km/h (2 Bft) 100 %
17.03.2017 09:50 10,7 C 10,4 C 10,7 C 73 % 1015,3 hPa 0,0 l/m 1,7 km/h (1 Bft) S-SO 161 10 min 0,000 mm 459 W/m 6,1 C 10,7 C 9,7 km/h (2 Bft) 99 %
17.03.2017 10:00 11,3 C 10,7 C 11,3 C 72 % 1015,2 hPa 0,0 l/m 2,3 km/h (1 Bft) S-SO 161 10 min 0,204 mm 492 W/m 6,4 C 11,3 C 8,0 km/h (2 Bft) 100 %
17.03.2017 10:10 11,9 C 11,3 C 11,9 C 70 % 1015,1 hPa 0,0 l/m 3,6 km/h (1 Bft) S 171 10 min 0,000 mm 420 W/m 6,6 C 11,9 C 9,7 km/h (2 Bft) 100 %
17.03.2017 10:20 12,7 C 11,9 C 12,7 C 72 % 1015,2 hPa 0,0 l/m 4,5 km/h (1 Bft) S 191 10 min 0,000 mm 547 W/m 7,8 C 12,7 C 16,1 km/h (3 Bft) 99 %
17.03.2017 10:30 14,1 C 12,7 C 14,1 C 69 % 1015,2 hPa 0,0 l/m 8,8 km/h (2 Bft) SW 219 10 min 0,000 mm 515 W/m 8,5 C 12,7 C 19,3 km/h (3 Bft) 99 %
17.03.2017 10:40 15,1 C 14,1 C 15,1 C 64 % 1015,2 hPa 0,0 l/m 8,8 km/h (2 Bft) W 261 10 min 0,000 mm 591 W/m 8,3 C 13,8 C 19,3 km/h (3 Bft) 100 %
17.03.2017 10:50 15,4 C 15,1 C 15,4 C 64 % 1015,1 hPa 0,0 l/m 9,1 km/h (2 Bft) SW 217 10 min 0,000 mm 540 W/m 8,6 C 14,0 C 19,3 km/h (3 Bft) 100 %
17.03.2017 11:00 15,9 C 15,4 C 15,9 C 63 % 1015,1 hPa 0,0 l/m 8,3 km/h (2 Bft) W-SW 256 10 min 0,279 mm 524 W/m 8,9 C 14,9 C 16,1 km/h (3 Bft) 100 %
17.03.2017 11:10 15,9 C 15,9 C 16,0 C 62 % 1014,8 hPa 0,0 l/m 9,7 km/h (2 Bft) W 259 10 min 0,000 mm 276 W/m 8,6 C 14,2 C 22,5 km/h (4 Bft) 99 %
17.03.2017 11:20 15,6 C 15,6 C 15,9 C 63 % 1014,9 hPa 0,0 l/m 10,0 km/h (2 Bft) W 277 10 min 0,000 mm 343 W/m 8,6 C 13,8 C 22,5 km/h (4 Bft) 99 %
17.03.2017 11:30 15,5 C 15,4 C 15,6 C 64 % 1014,7 hPa 0,0 l/m 8,2 km/h (2 Bft) W 273 10 min 0,000 mm 661 W/m 8,7 C 14,5 C 20,9 km/h (4 Bft) 100 %
17.03.2017 11:40 15,8 C 15,5 C 15,8 C 63 % 1014,7 hPa 0,0 l/m 10,0 km/h (2 Bft) W-NW 303 10 min 0,000 mm 281 W/m 8,8 C 14,0 C 22,5 km/h (4 Bft) 100 %
17.03.2017 11:50 16,2 C 15,8 C 16,2 C 64 % 1014,6 hPa 0,0 l/m 10,7 km/h (2 Bft) W-SW 242 10 min 0,000 mm 789 W/m 9,4 C 14,2 C 22,5 km/h (4 Bft) 99 %
17.03.2017 12:00 16,2 C 16,2 C 16,4 C 61 % 1014,7 hPa 0,0 l/m 11,6 km/h (2 Bft) W 268 10 min 0,279 mm 239 W/m 8,7 C 13,8 C 32,2 km/h (5 Bft) 100 %
17.03.2017 12:10 15,8 C 15,7 C 16,2 C 63 % 1014,4 hPa 0,0 l/m 12,1 km/h (2 Bft) SW 229 10 min 0,000 mm 717 W/m 8,8 C 13,2 C 29,0 km/h (5 Bft) 100 %
17.03.2017 12:20 16,4 C 15,8 C 16,4 C 62 % 1014,3 hPa 0,0 l/m 10,3 km/h (2 Bft) W-SW 257 10 min 0,000 mm 668 W/m 9,1 C 14,5 C 24,1 km/h (4 Bft) 100 %
17.03.2017 12:30 16,3 C 16,3 C 16,4 C 62 % 1014,4 hPa 0,0 l/m 13,3 km/h (3 Bft) W-SW 248 10 min 0,000 mm 388 W/m 9,0 C 13,3 C 25,7 km/h (4 Bft) 100 %
17.03.2017 12:40 16,1 C 16,1 C 16,3 C 63 % 1014,0 hPa 0,0 l/m 8,1 km/h (2 Bft) S-SW 197 10 min 0,000 mm 308 W/m 9,1 C 15,2 C 25,7 km/h (4 Bft) 100 %
17.03.2017 12:50 16,2 C 16,0 C 16,2 C 63 % 1013,9 hPa 0,0 l/m 9,8 km/h (2 Bft) NW 319 10 min 0,000 mm 647 W/m 9,1 C 14,5 C 20,9 km/h (4 Bft) 100 %
17.03.2017 13:00 16,4 C 16,2 C 16,4 C 63 % 1013,6 hPa 0,0 l/m 9,7 km/h (2 Bft) W-SW 242 10 min 0,305 mm 229 W/m 9,3 C 14,8 C 22,5 km/h (4 Bft) 100 %
17.03.2017 13:10 16,4 C 16,4 C 16,4 C 62 % 1013,6 hPa 0,0 l/m 12,2 km/h (2 Bft) W-SW 256 10 min 0,000 mm 621 W/m 9,1 C 13,8 C 27,4 km/h (4 Bft) 100 %
17.03.2017 13:20 16,6 C 16,4 C 16,6 C 60 % 1013,4 hPa 0,0 l/m 14,5 km/h (3 Bft) W 280 10 min 0,000 mm 659 W/m 8,8 C 13,3 C 29,0 km/h (5 Bft) 99 %
17.03.2017 13:30 16,8 C 16,6 C 16,8 C 61 % 1013,4 hPa 0,0 l/m 17,4 km/h (3 Bft) NW 312 10 min 0,000 mm 682 W/m 9,2 C 12,7 C 32,2 km/h (5 Bft) 100 %
17.03.2017 13:40 16,6 C 16,6 C 16,8 C 61 % 1013,6 hPa 0,0 l/m 14,8 km/h (3 Bft) W-NW 296 10 min 0,000 mm 264 W/m 9,0 C 13,2 C 35,4 km/h (5 Bft) 100 %
17.03.2017 13:50 16,5 C 16,4 C 16,6 C 62 % 1013,1 hPa 0,0 l/m 13,3 km/h (3 Bft) W 266 10 min 0,000 mm 297 W/m 9,2 C 13,5 C 27,4 km/h (4 Bft) 100 %
17.03.2017 14:00 16,3 C 16,3 C 16,5 C 62 % 1013,2 hPa 0,0 l/m 16,1 km/h (3 Bft) NW 313 10 min 0,305 mm 258 W/m 9,0 C 12,4 C 33,8 km/h (5 Bft) 100 %
17.03.2017 14:10 15,7 C 15,7 C 16,3 C 64 % 1013,2 hPa 0,0 l/m 18,0 km/h (3 Bft) NW 316 10 min 0,000 mm 229 W/m 8,9 C 11,2 C 33,8 km/h (5 Bft) 100 %
17.03.2017 14:20 15,3 C 15,3 C 15,7 C 65 % 1013,4 hPa 0,0 l/m 17,6 km/h (3 Bft) NW 306 10 min 0,000 mm 287 W/m 8,8 C 10,8 C 33,8 km/h (5 Bft) 100 %
17.03.2017 14:30 15,1 C 15,1 C 15,3 C 66 % 1013,2 hPa 0,0 l/m 11,1 km/h (2 Bft) NW 309 0 min 0,000 mm 100 W/m 8,8 C 12,8 C 22,5 km/h (4 Bft) 100 %
17.03.2017 14:40 14,6 C 14,6 C 15,1 C 66 % 1013,5 hPa 0,0 l/m 12,5 km/h (3 Bft) NW 311 0 min 0,000 mm 121 W/m 8,3 C 11,6 C 22,5 km/h (4 Bft) 99 %
17.03.2017 14:50 14,3 C 14,3 C 14,6 C 67 % 1013,1 hPa 0,0 l/m 11,1 km/h (2 Bft) W-NW 300 10 min 0,000 mm 199 W/m 8,3 C 11,8 C 24,1 km/h (4 Bft) 99 %
17.03.2017 15:00 14,4 C 14,3 C 14,4 C 65 % 1013,2 hPa 0,0 l/m 14,5 km/h (3 Bft) W 267 0 min 0,152 mm 141 W/m 7,9 C 10,6 C 32,2 km/h (5 Bft) 99 %
17.03.2017 15:10 14,6 C 14,4 C 14,6 C 63 % 1013,1 hPa 0,0 l/m 16,8 km/h (3 Bft) NW 305 10 min 0,000 mm 160 W/m 7,6 C 10,1 C 33,8 km/h (5 Bft) 98 %
17.03.2017 15:20 14,4 C 14,4 C 14,6 C 62 % 1013,1 hPa 0,0 l/m 20,4 km/h (4 Bft) W-NW 298 0 min 0,000 mm 144 W/m 7,2 C 8,9 C 45,1 km/h (6 Bft) 97 %
17.03.2017 15:30 14,4 C 14,3 C 14,4 C 63 % 1013,1 hPa 0,0 l/m 15,5 km/h (3 Bft) W 281 10 min 0,000 mm 185 W/m 7,4 C 10,3 C 29,0 km/h (5 Bft) 97 %
17.03.2017 15:40 14,6 C 14,4 C 14,6 C 60 % 1013,2 hPa 0,0 l/m 18,7 km/h (3 Bft) W-NW 293 10 min 0,000 mm 162 W/m 6,9 C 9,6 C 33,8 km/h (5 Bft) 97 %
17.03.2017 15:50 14,5 C 14,5 C 14,6 C 59 % 1013,2 hPa 0,0 l/m 22,1 km/h (4 Bft) W-NW 294 0 min 0,000 mm 151 W/m 6,6 C 8,6 C 41,8 km/h (6 Bft) 97 %
17.03.2017 16:00 14,3 C 14,3 C 14,5 C 59 % 1013,1 hPa 0,0 l/m 21,5 km/h (4 Bft) W-NW 296 0 min 0,178 mm 151 W/m 6,4 C 8,5 C 48,3 km/h (6 Bft) 97 %
17.03.2017 16:10 14,3 C 14,3 C 14,3 C 63 % 1013,2 hPa 0,0 l/m 15,1 km/h (3 Bft) W-NW 290 0 min 0,000 mm 144 W/m 7,4 C 10,3 C 33,8 km/h (5 Bft) 97 %
17.03.2017 16:20 14,1 C 14,1 C 14,3 C 64 % 1013,5 hPa 0,0 l/m 18,8 km/h (3 Bft) NW 311 0 min 0,000 mm 116 W/m 7,4 C 8,9 C 37,0 km/h (5 Bft) 97 %
17.03.2017 16:30 13,7 C 13,7 C 14,1 C 65 % 1013,7 hPa 0,0 l/m 16,2 km/h (3 Bft) NW 317 0 min 0,000 mm 109 W/m 7,2 C 9,2 C 35,4 km/h (5 Bft) 98 %
17.03.2017 16:40 13,4 C 13,4 C 13,7 C 65 % 1013,5 hPa 0,0 l/m 12,6 km/h (3 Bft) NW 326 0 min 0,000 mm 114 W/m 7,0 C 10,2 C 29,0 km/h (5 Bft) 97 %
17.03.2017 16:50 13,1 C 13,1 C 13,4 C 64 % 1013,4 hPa 0,0 l/m 12,4 km/h (3 Bft) NW 319 0 min 0,000 mm 97 W/m 6,4 C 9,9 C 24,1 km/h (4 Bft) 97 %
17.03.2017 17:00 12,7 C 12,7 C 13,1 C 65 % 1013,3 hPa 0,0 l/m 12,6 km/h (3 Bft) NW 304 0 min 0,127 mm 69 W/m 6,3 C 9,4 C 30,6 km/h (5 Bft) 97 %
17.03.2017 17:10 12,5 C 12,5 C 12,7 C 65 % 1013,4 hPa 0,0 l/m 9,1 km/h (2 Bft) NW 321 0 min 0,000 mm 51 W/m 6,1 C 10,8 C 22,5 km/h (4 Bft) 98 %
17.03.2017 17:20 12,3 C 12,3 C 12,5 C 65 % 1013,6 hPa 0,0 l/m 6,1 km/h (2 Bft) W-NW 291 0 min 0,000 mm 54 W/m 5,9 C 12,3 C 22,5 km/h (4 Bft) 97 %
17.03.2017 17:30 12,2 C 12,2 C 12,3 C 65 % 1013,5 hPa 0,0 l/m 7,7 km/h (2 Bft) W-NW 303 0 min 0,000 mm 62 W/m 5,8 C 11,3 C 16,1 km/h (3 Bft) 98 %
17.03.2017 17:40 12,1 C 12,1 C 12,2 C 65 % 1013,5 hPa 0,0 l/m 3,8 km/h (1 Bft) W-NW 302 0 min 0,000 mm 47 W/m 5,7 C 12,1 C 12,9 km/h (3 Bft) 97 %
17.03.2017 17:50 12,0 C 12,0 C 12,1 C 65 % 1013,5 hPa 0,0 l/m 5,0 km/h (1 Bft) W 269 0 min 0,000 mm 25 W/m 5,6 C 12,0 C 16,1 km/h (3 Bft) 98 %
17.03.2017 18:00 11,8 C 11,8 C 12,0 C 65 % 1013,5 hPa 0,0 l/m 4,9 km/h (1 Bft) NW 316 0 min 0,051 mm 14 W/m 5,4 C 11,8 C 16,1 km/h (3 Bft) 97 %
17.03.2017 18:10 11,7 C 11,7 C 11,8 C 65 % 1013,6 hPa 0,0 l/m 3,0 km/h (1 Bft) W 275 0 min 0,000 mm 7 W/m 5,3 C 11,7 C 11,3 km/h (2 Bft) 96 %
17.03.2017 18:20 11,6 C 11,6 C 11,7 C 65 % 1013,7 hPa 0,0 l/m 5,6 km/h (1 Bft) W-NW 302 0 min 0,000 mm 0 W/m 5,2 C 11,6 C 16,1 km/h (3 Bft) 91 %
17.03.2017 18:30 11,4 C 11,4 C 11,6 C 66 % 1013,7 hPa 0,0 l/m 5,3 km/h (1 Bft) W-NW 294 0 min 0,000 mm 0 W/m 5,3 C 11,4 C 16,1 km/h (3 Bft) 97 %
17.03.2017 18:40 11,3 C 11,3 C 11,4 C 66 % 1013,7 hPa 0,0 l/m 3,3 km/h (1 Bft) NW 312 0 min 0,000 mm 0 W/m 5,2 C 11,3 C 16,1 km/h (3 Bft) 97 %
17.03.2017 18:50 11,2 C 11,2 C 11,3 C 67 % 1013,7 hPa 0,0 l/m 1,5 km/h (1 Bft) W-NW 292 0 min 0,000 mm 0 W/m 5,3 C 11,2 C 8,0 km/h (2 Bft) 98 %
17.03.2017 19:00 11,1 C 11,1 C 11,2 C 67 % 1013,7 hPa 0,0 l/m 2,6 km/h (1 Bft) W-NW 300 0 min 0,025 mm 0 W/m 5,2 C 11,1 C 11,3 km/h (2 Bft) 97 %
17.03.2017 19:10 10,9 C 10,9 C 11,1 C 67 % 1013,6 hPa 0,0 l/m 4,1 km/h (1 Bft) W-NW 302 0 min 0,000 mm 0 W/m 5,0 C 10,9 C 11,3 km/h (2 Bft) 98 %
17.03.2017 19:20 10,8 C 10,8 C 10,9 C 67 % 1013,6 hPa 0,0 l/m 3,9 km/h (1 Bft) W 272 0 min 0,000 mm 0 W/m 4,9 C 10,8 C 14,5 km/h (3 Bft) 97 %
17.03.2017 19:30 10,8 C 10,8 C 10,8 C 67 % 1014,1 hPa 0,0 l/m 2,9 km/h (1 Bft) W-NW 294 0 min 0,000 mm 0 W/m 4,9 C 10,8 C 16,1 km/h (3 Bft) 97 %
17.03.2017 19:40 10,7 C 10,7 C 10,8 C 67 % 1014,2 hPa 0,0 l/m 3,1 km/h (1 Bft) W-NW 287 0 min 0,000 mm 0 W/m 4,8 C 10,7 C 12,9 km/h (3 Bft) 97 %
17.03.2017 19:50 10,7 C 10,7 C 10,7 C 67 % 1014,2 hPa 0,0 l/m 3,6 km/h (1 Bft) W 278 0 min 0,000 mm 0 W/m 4,8 C 10,7 C 11,3 km/h (2 Bft) 97 %
17.03.2017 20:00 10,6 C 10,6 C 10,7 C 67 % 1014,1 hPa 0,0 l/m 4,4 km/h (1 Bft) W 261 0 min 0,026 mm 0 W/m 4,7 C 10,6 C 11,3 km/h (2 Bft) 98 %
17.03.2017 20:10 10,6 C 10,6 C 10,6 C 68 % 1014,0 hPa 0,0 l/m 4,1 km/h (1 Bft) W-SW 247 0 min 0,000 mm 0 W/m 4,9 C 10,6 C 14,5 km/h (3 Bft) 97 %
17.03.2017 20:20 10,5 C 10,5 C 10,6 C 69 % 1014,1 hPa 0,0 l/m 5,3 km/h (1 Bft) W 266 0 min 0,000 mm 0 W/m 5,1 C 10,5 C 16,1 km/h (3 Bft) 98 %
17.03.2017 20:30 10,5 C 10,5 C 10,5 C 69 % 1014,0 hPa 0,0 l/m 6,9 km/h (2 Bft) W 262 0 min 0,000 mm 0 W/m 5,1 C 10,2 C 17,7 km/h (3 Bft) 97 %
17.03.2017 20:40 10,5 C 10,5 C 10,5 C 69 % 1014,1 hPa 0,0 l/m 6,2 km/h (2 Bft) W-SW 247 0 min 0,000 mm 0 W/m 5,1 C 10,5 C 16,1 km/h (3 Bft) 98 %
17.03.2017 20:50 10,5 C 10,5 C 10,5 C 68 % 1013,7 hPa 0,0 l/m 10,5 km/h (2 Bft) W 272 0 min 0,000 mm 0 W/m 4,8 C 7,9 C 24,1 km/h (4 Bft) 97 %
17.03.2017 21:00 10,4 C 10,4 C 10,5 C 68 % 1013,6 hPa 0,0 l/m 11,7 km/h (2 Bft) W 261 0 min 0,051 mm 0 W/m 4,8 C 7,1 C 22,5 km/h (4 Bft) 98 %
17.03.2017 21:10 10,3 C 10,3 C 10,4 C 68 % 1013,6 hPa 0,0 l/m 9,7 km/h (2 Bft) W 270 0 min 0,000 mm 0 W/m 4,7 C 8,1 C 19,3 km/h (3 Bft) 100 %
17.03.2017 21:20 10,2 C 10,2 C 10,3 C 68 % 1014,0 hPa 0,0 l/m 12,9 km/h (3 Bft) W-SW 247 0 min 0,000 mm 0 W/m 4,6 C 6,3 C 25,7 km/h (4 Bft) 100 %
17.03.2017 21:30 10,1 C 10,1 C 10,2 C 69 % 1013,8 hPa 0,0 l/m 12,9 km/h (3 Bft) W-SW 247 0 min 0,000 mm 0 W/m 4,7 C 6,2 C 32,2 km/h (5 Bft) 100 %
17.03.2017 21:40 9,9 C 9,9 C 10,1 C 70 % 1013,7 hPa 0,0 l/m 11,3 km/h (2 Bft) W-SW 247 0 min 0,000 mm 0 W/m 4,7 C 6,8 C 20,9 km/h (4 Bft) 100 %
17.03.2017 21:50 9,7 C 9,7 C 9,9 C 70 % 1014,1 hPa 0,0 l/m 9,7 km/h (2 Bft) W-SW 247 0 min 0,000 mm 0 W/m 4,5 C 7,4 C 20,9 km/h (4 Bft) 99 %
17.03.2017 22:00 9,6 C 9,6 C 9,7 C 71 % 1013,9 hPa 0,0 l/m 9,7 km/h (2 Bft) W 270 0 min 0,051 mm 0 W/m 4,6 C 7,3 C 20,9 km/h (4 Bft) 100 %
17.03.2017 22:10 9,4 C 9,4 C 9,6 C 71 % 1013,8 hPa 0,0 l/m 11,3 km/h (2 Bft) W 270 0 min 0,000 mm 0 W/m 4,4 C 6,2 C 27,4 km/h (4 Bft) 99 %
17.03.2017 22:20 9,3 C 9,3 C 9,4 C 72 % 1013,7 hPa 0,0 l/m 8,0 km/h (2 Bft) W-SW 247 0 min 0,000 mm 0 W/m 4,5 C 8,1 C 20,9 km/h (4 Bft) 100 %
17.03.2017 22:30 9,1 C 9,1 C 9,3 C 72 % 1013,7 hPa 0,0 l/m 9,7 km/h (2 Bft) W-SW 247 0 min 0,000 mm 0 W/m 4,3 C 6,8 C 22,5 km/h (4 Bft) 100 %
17.03.2017 22:40 9,0 C 9,0 C 9,1 C 73 % 1013,7 hPa 0,0 l/m 8,0 km/h (2 Bft) SW 225 0 min 0,000 mm 0 W/m 4,4 C 7,8 C 19,3 km/h (3 Bft) 100 %
17.03.2017 22:50 8,9 C 8,9 C 9,0 C 75 % 1013,5 hPa 0,0 l/m 11,3 km/h (2 Bft) SW 225 0 min 0,000 mm 0 W/m 4,7 C 5,6 C 20,9 km/h (4 Bft) 100 %
17.03.2017 23:00 8,8 C 8,8 C 8,9 C 75 % 1013,5 hPa 0,0 l/m 9,7 km/h (2 Bft) SW 225 0 min 0,025 mm 0 W/m 4,6 C 6,5 C 24,1 km/h (4 Bft) 99 %
17.03.2017 23:10 8,7 C 8,7 C 8,8 C 76 % 1013,2 hPa 0,0 l/m 9,7 km/h (2 Bft) SW 225 0 min 0,000 mm 0 W/m 4,7 C 6,3 C 22,5 km/h (4 Bft) 100 %
17.03.2017 23:20 8,6 C 8,6 C 8,7 C 77 % 1012,8 hPa 0,0 l/m 11,3 km/h (2 Bft) SW 225 0 min 0,000 mm 0 W/m 4,8 C 5,3 C 30,6 km/h (5 Bft) 100 %
17.03.2017 23:30 8,4 C 8,4 C 8,6 C 78 % 1012,7 hPa 0,0 l/m 12,9 km/h (3 Bft) SW 225 0 min 0,000 mm 0 W/m 4,8 C 4,2 C 33,8 km/h (5 Bft) 100 %
17.03.2017 23:40 8,4 C 8,4 C 8,4 C 79 % 1012,8 hPa 0,0 l/m 9,7 km/h (2 Bft) SW 225 0 min 0,000 mm 0 W/m 5,0 C 6,0 C 24,1 km/h (4 Bft) 100 %
17.03.2017 23:50 8,3 C 8,3 C 8,4 C 81 % 1012,9 hPa 0,0 l/m 14,5 km/h (3 Bft) SW 225 0 min 0,000 mm 0 W/m 5,2 C 3,3 C 29,0 km/h (5 Bft) 100 %
_ Min-Zeit 02:20 02:20 06:10 15:50 23:30 - 00:00 - - - - - 06:00 06:00 00:00 03:40
Minimum _ 2,8 C 2,8 C 2,8 C 59 % 1012,7 hPa - 0,0 km/h (0 Bft) - - - - - 0,5 C 2,8 C 0,0 km/h (0 Bft) 89 %
_ Max-Zeit 13:30 13:30 13:30 06:20 00:00 00:00 15:50 - - 08:50 13:00 11:50 11:50 12:40 16:00 00:00
Maximum _ 16,8 C 16,6 C 16,8 C 88 % 1017,9 hPa 0,0 l/m 22,1 km/h
W-NW (4 Bft)
- - 30 min 0,305 mm 789 W/m 9,4 C 15,2 C 48,3 km/h
W-NW (6 Bft)
100 %
Durchschnitt _ 9,4 C 9,3 C 9,5 C 73 % 1014,8 hPa #0,0 l/m 6,1 km/h (2 Bft) W - #7:10 h #2,210 mm 271 W/m 4,6 C 8,2 C 14,6 km/h (3 Bft) 99 %
PRIVATE WETTERSTATION BILLIGHEIM-ALLFELD - www.neckar-odenwald-wetter.de - Holger Sonntag